Wind_Speed
30 29 30 29 28 29 32 33 34 33 34 35 36 37 37 39 40 41 41 43 44 45 46 47 48 48 49 49 50 50 51 52 52 54 55 56 56 56 57 57 58 59 60 61
29 29 29 27 27 29 31 32 34 35 35 36 38 38 38 40 42 43 44 46 47 48 49 50 50 51 51 52 52 53 54 54 54 55 56 56 57 58 58 58 59 59 59 60
29 29 29 28 28 30 31 32 34 36 37 38 39 40 41 43 45 47 48 49 51 52 52 53 54 54 54 55 55 56 56 57 57 57 57 57 58 58 59 59 59 59 59 60
31 30 30 29 30 32 34 34 36 37 39 40 42 43 45 47 49 51 52 54 55 56 56 57 57 57 57 58 58 58 59 59 59 59 58 58 57 57 57 58 58 59 59 59
33 34 32 31 33 35 37 37 38 40 42 44 45 47 48 51 53 55 57 58 59 60 60 60 60 60 60 60 60 60 60 60 60 59 58 57 57 57 57 57 57 58 58 58
35 37 36 36 38 39 41 43 43 45 47 48 50 52 53 55 58 59 60 62 63 63 63 63 63 62 62 62 61 61 61 60 60 59 58 57 57 57 57 57 57 57 56 57
36 39 39 40 42 44 46 48 49 50 52 54 56 58 60 61 63 64 65 66 66 66 66 65 65 64 63 63 62 61 60 60 59 59 58 57 57 57 57 56 55 55 55 56
39 41 42 45 47 48 50 52 53 55 56 58 60 62 64 65 67 68 68 69 69 69 68 67 66 65 64 63 62 61 60 59 58 58 58 57 57 56 56 55 55 55 55 55
43 44 46 49 51 53 55 56 58 59 61 63 64 66 67 69 70 70 71 71 70 70 68 67 66 65 64 62 61 60 59 58 58 57 57 57 56 55 54 54 54 54 54 53
47 47 49 52 54 56 58 60 61 63 65 66 68 69 70 72 72 73 72 72 71 70 68 66 65 64 63 62 60 59 58 57 57 56 55 54 54 54 53 53 52 52 52 52
52 52 54 55 57 59 61 64 65 67 68 70 72 72 73 74 74 73 72 71 70 69 67 65 63 62 62 61 60 58 57 56 55 54 53 52 52 51 51 51 51 51 50 50
55 56 58 59 61 63 65 66 68 69 71 72 74 74 74 74 73 72 70 69 68 66 65 63 62 61 60 59 58 57 55 54 53 52 51 50 49 49 49 49 49 49 48 48
58 59 61 63 65 67 68 69 70 72 73 74 74 74 74 72 71 69 68 67 66 65 63 62 60 59 58 57 56 55 54 52 51 50 49 48 48 47 45 45 46 46 46 46
61 63 64 66 67 69 70 71 72 73 73 74 73 72 71 70 68 67 65 65 64 62 61 60 59 57 56 55 54 52 51 50 49 47 47 46 45 44 44 43 43 43 44 45
65 66 67 68 69 70 71 72 73 73 72 71 70 69 68 66 65 63 62 62 60 59 58 58 57 55 54 52 51 49 48 46 46 45 44 43 42 42 42 42 42 42 42 42
66 68 69 69 70 71 71 71 71 70 69 67 65 64 63 62 61 60 59 59 58 56 56 55 54 52 51 49 48 46 44 43 42 41 40 39 40 41 41 41 41 40 40 39
67 68 68 69 69 69 69 68 67 65 64 62 61 61 59 58 58 56 56 55 55 54 54 53 51 49 47 46 44 42 40 38 37 37 37 37 38 39 39 38 37 37 37 37
68 68 68 68 67 65 64 62 61 60 59 59 58 57 56 56 55 54 53 52 52 51 51 50 47 45 44 43 41 39 36 34 34 35 35 35 36 36 36 35 35 35 35 34
65 64 64 63 62 61 59 58 57 56 55 55 54 53 52 52 52 51 51 50 49 48 46 45 43 42 41 39 37 34 33 32 33 33 33 33 33 34 34 34 34 34 33 32
62 61 60 58 57 56 56 55 54 52 51 51 51 50 49 49 49 49 47 46 46 46 43 42 40 39 36 35 33 32 31 31 31 31 31 32 32 33 33 33 32 32 31 29
59 58 56 55 53 52 52 51 50 49 49 48 48 48 47 46 46 46 45 43 42 42 41 39 37 35 34 32 31 30 30 30 30 30 31 31 32 32 31 31 30 30 29 27
56 54 53 52 51 49 48 48 48 47 46 45 45 45 45 44 44 43 43 43 41 40 38 36 35 33 32 30 29 29 29 29 29 30 30 30 30 30 30 29 29 29 27 25
53 52 51 50 50 48 46 45 45 45 45 44 44 44 44 43 43 43 40 39 39 38 36 34 33 32 30 29 28 28 28 28 28 29 30 29 29 29 29 29 28 27 25 23
52 51 50 49 49 47 45 43 43 43 43 43 42 42 42 41 40 40 40 38 37 36 34 33 31 30 29 28 27 27 27 28 28 28 28 28 28 28 28 27 26 25 22 19
52 51 50 49 47 45 43 41 40 40 40 40 39 39 40 40 39 38 37 36 35 34 33 31 30 29 28 27 26 26 26 27 27 27 27 27 27 27 26 25 23 21 18 15
51 49 48 46 45 43 41 39 38 38 38 38 37 37 37 38 38 37 36 35 34 33 32 30 29 28 27 26 25 24 25 26 26 26 26 26 26 24 23 21 19 16 14 12
48 46 44 43 41 40 38 37 37 37 37 37 36 36 36 37 37 36 35 34 33 31 30 29 28 26 25 24 23 23 24 24 24 25 25 24 23 22 20 17 15 13 12 10
Wind_Direction
288 290 291 294 298 298 299 302 304 308 308 308 308 311 312 311 311 311 312 312 312 312 312 311 310 310 309 308 307 305 303 301 298 296 295 294 292 292 292 292 292 291 291 291
287 289 290 294 296 296 298 300 302 305 307 307 310 311 311 311 310 311 311 311 311 311 311 311 310 310 309 308 307 306 304 303 301 299 297 295 293 293 293 293 293 293 292 292
286 288 290 294 296 297 297 300 302 304 306 307 309 310 310 309 309 309 310 310 310 310 310 310 309 309 308 308 307 306 305 303 302 300 299 296 295 295 294 293 293 294 294 293
286 287 290 296 297 297 298 300 301 303 305 307 307 308 308 307 307 308 308 309 309 310 309 309 309 308 307 307 307 306 305 304 302 301 300 298 297 296 295 295 295 295 294 294
288 289 291 294 295 296 298 299 301 303 304 305 306 306 306 306 306 307 308 308 308 308 308 308 307 307 306 306 306 305 305 304 302 301 300 299 298 297 297 297 297 296 295 294
288 290 293 297 297 297 299 300 302 304 304 305 305 304 304 304 305 305 306 306 306 306 306 306 306 306 305 305 305 305 304 304 302 301 300 299 298 298 298 298 297 297 296 296
288 290 294 295 296 298 299 302 304 305 305 305 305 305 305 304 305 305 305 305 305 306 306 305 305 305 304 304 304 304 303 303 302 300 300 299 299 299 298 298 298 298 298 297
287 290 294 294 297 298 300 301 303 303 303 303 303 303 303 303 303 304 304 304 304 305 305 305 304 304 304 304 303 303 302 301 301 300 299 299 299 299 298 298 298 298 299 299
289 291 293 295 297 299 300 301 302 302 302 302 302 302 302 302 303 303 303 303 304 304 304 304 304 303 303 303 302 302 301 300 300 300 300 300 299 299 299 299 299 299 300 299
287 290 292 294 296 297 298 299 299 300 300 300 301 301 301 302 302 303 303 303 303 303 303 303 303 302 302 302 301 301 300 300 300 300 300 300 300 300 300 300 300 301 301 300
288 292 293 295 296 297 297 298 299 299 300 301 301 301 301 302 302 303 303 303 303 302 303 303 302 302 301 301 300 300 300 300 300 301 301 301 301 301 301 301 301 302 302 302
292 294 295 296 296 297 298 298 299 299 300 300 301 301 301 302 302 302 302 302 302 302 302 302 302 301 301 300 300 300 300 301 302 302 302 303 302 302 302 302 303 303 304 304
293 294 294 295 296 297 297 298 298 299 299 300 300 301 302 302 302 302 302 302 302 302 302 302 302 302 301 301 301 301 302 303 303 304 304 305 305 304 304 304 305 305 305 305
292 293 294 295 296 296 297 298 298 299 299 300 301 301 302 302 302 302 303 303 303 303 303 303 303 303 302 302 303 303 303 304 305 305 306 306 306 306 307 307 307 307 306 305
292 293 294 295 296 296 297 298 298 299 300 301 301 302 302 302 303 303 303 303 303 303 304 303 304 304 304 304 304 305 306 306 306 307 307 307 308 309 310 310 310 309 308 307
292 293 294 295 296 297 298 298 299 300 301 301 301 302 302 303 303 303 303 303 304 304 305 305 305 306 306 305 306 306 307 308 308 308 309 310 311 312 313 313 312 312 311 310
293 294 295 296 297 298 299 300 300 301 301 301 302 302 303 303 303 303 304 304 305 306 307 307 308 308 308 307 308 308 309 309 309 309 310 312 313 314 315 315 315 315 315 314
293 295 296 297 298 298 299 300 300 301 301 301 302 302 303 303 304 305 305 306 306 307 307 308 309 309 308 308 309 310 311 311 310 311 312 313 315 317 317 317 317 318 318 318
295 296 297 297 298 298 299 299 299 300 300 301 302 303 304 305 306 307 308 309 308 308 308 308 309 309 310 310 312 312 312 313 313 313 314 315 317 318 319 319 319 320 320 320
295 296 296 297 297 298 298 298 299 300 300 301 302 303 304 306 307 309 309 310 310 310 311 310 309 310 311 312 313 313 314 314 315 315 316 316 317 319 320 321 322 322 322 321
295 295 295 295 295 296 297 297 298 299 300 301 302 304 305 307 308 309 310 310 310 310 311 311 311 311 312 313 313 313 314 315 316 316 317 317 317 319 321 322 323 323 322 322
294 294 294 294 294 294 295 296 297 298 300 301 302 304 305 307 308 310 311 310 311 310 311 311 311 312 312 312 312 313 314 315 316 317 318 318 319 320 322 323 323 323 323 322
293 293 293 293 293 293 294 294 295 297 299 301 302 303 305 307 309 310 310 310 310 310 311 311 311 311 311 311 311 312 314 315 316 318 319 319 320 321 322 323 324 324 324 323
292 292 292 292 292 292 292 292 293 296 298 300 302 303 305 306 308 309 310 310 310 310 311 311 311 311 311 311 311 312 313 315 317 318 320 320 321 322 323 324 324 324 325 325
291 291 291 290 290 291 291 291 292 294 297 299 301 302 303 305 307 309 309 310 310 310 311 311 312 311 311 311 311 312 314 316 317 319 320 321 323 324 324 324 326 327 327 328
289 289 289 288 289 290 290 290 292 295 297 299 300 302 303 305 307 308 310 310 310 311 311 311 311 310 310 311 311 312 314 316 318 319 321 322 324 324 324 325 328 331 332 332
288 287 287 286 287 288 288 290 292 295 297 299 300 301 302 304 305 307 308 309 309 309 310 310 310 309 310 310 310 311 313 316 318 320 321 323 324 324 325 326 330 334 335 336
Height
5756 5754 5752 5750 5749 5746 5742 5739 5736 5735 5732 5729 5725 5722 5718 5713 5709 5704 5699 5694 5689 5684 5679 5673 5667 5661 5655 5648 5642 5635 5629 5623 5617 5611 5605 5599 5593 5588 5583 5577 5572 5566 5561 5555
5748 5746 5744 5743 5742 5739 5736 5733 5729 5727 5725 5720 5717 5713 5709 5704 5699 5695 5690 5685 5679 5674 5668 5662 5655 5649 5643 5636 5630 5623 5616 5609 5602 5596 5590 5584 5578 5572 5566 5561 5555 5550 5544 5538
5740 5738 5736 5737 5735 5731 5728 5726 5722 5719 5717 5712 5709 5704 5700 5695 5689 5684 5679 5674 5668 5662 5656 5649 5643 5636 5630 5623 5616 5609 5602 5595 5588 5581 5575 5568 5562 5556 5550 5545 5539 5534 5528 5522
5731 5731 5729 5731 5726 5723 5720 5718 5714 5710 5707 5703 5699 5695 5690 5684 5678 5673 5667 5661 5655 5649 5642 5636 5629 5622 5616 5609 5602 5594 5587 5579 5572 5565 5559 5552 5546 5540 5534 5529 5523 5517 5511 5505
5722 5720 5720 5722 5718 5713 5710 5708 5705 5701 5698 5693 5689 5685 5680 5672 5666 5660 5654 5648 5641 5634 5628 5621 5614 5607 5601 5594 5586 5579 5571 5564 5556 5549 5543 5536 5530 5524 5518 5512 5506 5500 5494 5488
5713 5710 5710 5712 5707 5702 5700 5697 5694 5690 5686 5682 5677 5672 5668 5660 5654 5647 5641 5634 5627 5620 5613 5606 5599 5592 5585 5578 5570 5563 5555 5547 5539 5532 5526 5520 5514 5507 5501 5495 5490 5484 5478 5471
5704 5700 5701 5700 5696 5692 5690 5686 5682 5677 5673 5668 5662 5657 5652 5645 5639 5632 5625 5618 5611 5604 5597 5589 5582 5575 5568 5561 5553 5546 5538 5531 5523 5516 5509 5503 5497 5491 5485 5479 5473 5468 5462 5456
5695 5692 5693 5687 5684 5681 5678 5674 5669 5664 5660 5654 5649 5642 5636 5630 5623 5616 5609 5602 5594 5587 5580 5572 5564 5557 5551 5543 5536 5529 5522 5514 5507 5500 5493 5486 5481 5475 5468 5462 5457 5451 5446 5440
5686 5684 5681 5676 5672 5668 5664 5660 5656 5651 5646 5640 5634 5627 5621 5614 5607 5599 5592 5584 5577 5570 5563 5555 5546 5539 5532 5526 5518 5512 5505 5498 5491 5484 5477 5470 5464 5458 5452 5446 5441 5435 5429 5424
5673 5673 5670 5665 5661 5657 5652 5647 5642 5636 5630 5624 5617 5611 5604 5597 5589 5581 5574 5566 5559 5551 5545 5538 5530 5522 5514 5507 5501 5495 5488 5481 5474 5468 5462 5455 5448 5442 5436 5430 5424 5419 5413 5408
5661 5660 5657 5653 5648 5643 5638 5632 5626 5620 5613 5606 5600 5593 5586 5579 5571 5563 5556 5548 5540 5533 5527 5520 5513 5505 5497 5490 5484 5478 5472 5465 5459 5452 5446 5440 5434 5427 5420 5415 5408 5403 5398 5392
5649 5646 5642 5638 5632 5627 5622 5616 5610 5604 5597 5589 5582 5575 5568 5561 5553 5545 5538 5530 5523 5516 5509 5502 5495 5488 5481 5473 5467 5461 5456 5449 5443 5437 5431 5425 5419 5414 5406 5400 5394 5388 5382 5376
5634 5630 5626 5622 5616 5610 5605 5599 5593 5586 5579 5572 5565 5557 5550 5543 5536 5528 5520 5513 5505 5499 5492 5485 5478 5472 5464 5458 5451 5445 5440 5434 5428 5422 5416 5410 5404 5399 5394 5388 5381 5374 5368 5362
5618 5614 5611 5605 5600 5594 5588 5582 5575 5569 5561 5554 5547 5540 5533 5526 5519 5511 5503 5496 5489 5482 5476 5468 5462 5456 5449 5443 5437 5431 5425 5420 5414 5408 5402 5397 5391 5385 5380 5374 5369 5362 5356 5349
5602 5597 5593 5588 5582 5576 5570 5564 5558 5551 5544 5537 5530 5523 5515 5509 5502 5495 5488 5480 5473 5467 5460 5453 5446 5441 5434 5428 5423 5417 5412 5406 5400 5395 5390 5384 5379 5373 5367 5361 5355 5350 5344 5337
5585 5580 5575 5570 5565 5559 5553 5546 5540 5534 5527 5521 5514 5507 5500 5493 5486 5480 5473 5465 5458 5453 5446 5438 5433 5427 5420 5415 5409 5405 5399 5394 5388 5383 5378 5373 5367 5362 5356 5350 5344 5338 5332 5326
5568 5563 5558 5553 5547 5541 5535 5529 5523 5517 5511 5504 5498 5491 5485 5478 5472 5466 5459 5452 5445 5439 5431 5425 5420 5414 5408 5402 5397 5392 5388 5383 5378 5373 5368 5362 5357 5351 5345 5339 5333 5327 5321 5315
5550 5545 5540 5535 5529 5524 5519 5513 5506 5500 5494 5488 5483 5477 5471 5464 5458 5452 5446 5440 5433 5427 5420 5413 5407 5402 5396 5391 5386 5381 5377 5372 5368 5363 5358 5353 5347 5342 5336 5330 5324 5318 5313 5307
5533 5528 5523 5518 5512 5507 5503 5497 5492 5486 5480 5474 5469 5463 5457 5451 5445 5439 5433 5427 5420 5414 5409 5403 5396 5391 5386 5381 5376 5372 5367 5363 5359 5354 5349 5344 5339 5334 5328 5322 5316 5311 5305 5300
5516 5512 5507 5502 5497 5492 5487 5482 5477 5472 5467 5461 5456 5451 5445 5440 5433 5427 5422 5415 5408 5401 5397 5391 5386 5381 5376 5372 5367 5363 5359 5355 5350 5346 5341 5336 5331 5326 5320 5315 5309 5304 5299 5293
5501 5496 5492 5487 5483 5478 5473 5468 5463 5459 5455 5449 5443 5438 5433 5428 5422 5416 5410 5405 5400 5392 5387 5382 5376 5372 5367 5363 5359 5355 5351 5347 5343 5338 5334 5329 5324 5319 5314 5308 5303 5298 5293 5288
5485 5481 5477 5473 5468 5465 5460 5455 5450 5446 5442 5437 5432 5426 5421 5417 5412 5406 5400 5394 5388 5383 5378 5373 5367 5363 5359 5355 5352 5348 5344 5340 5336 5331 5327 5322 5317 5312 5307 5302 5297 5292 5287 5282
5469 5465 5462 5458 5453 5450 5447 5443 5438 5434 5429 5425 5420 5415 5410 5406 5400 5395 5390 5386 5379 5374 5369 5364 5359 5355 5351 5347 5344 5340 5337 5333 5329 5325 5320 5315 5311 5306 5301 5296 5291 5286 5282 5277
5454 5450 5446 5442 5438 5435 5433 5430 5426 5422 5418 5414 5409 5404 5399 5395 5391 5385 5380 5375 5370 5365 5360 5355 5351 5347 5343 5340 5337 5333 5330 5326 5322 5318 5314 5309 5305 5300 5295 5291 5286 5281 5277 5273
5438 5434 5431 5427 5424 5421 5419 5416 5413 5410 5406 5403 5399 5394 5389 5384 5380 5376 5371 5366 5360 5356 5352 5347 5343 5339 5336 5333 5330 5326 5323 5320 5316 5312 5308 5303 5299 5294 5290 5285 5281 5277 5274 5271
5422 5419 5416 5413 5410 5407 5405 5403 5401 5398 5394 5391 5388 5384 5379 5375 5370 5365 5361 5356 5352 5347 5343 5339 5336 5332 5329 5326 5323 5320 5317 5313 5310 5306 5302 5298 5294 5289 5285 5281 5278 5274 5272 5269
5406 5403 5401 5399 5397 5394 5392 5391 5389 5386 5383 5380 5377 5374 5369 5365 5360 5356 5352 5347 5343 5339 5335 5331 5328 5325 5322 5319 5316 5314 5311 5307 5304 5300 5297 5293 5289 5285 5282 5278 5276 5273 5270 5268